Regional Weather Roundup
Issued by NWS

Home | Current Version | Previous Version | Graphics & Text | Print | Product List | Glossary Off
Versions: 1 2 3 4 5 6 7 8 9 10 11 12 13 14 15 16 17 18 19 20 21 22 23 24 25 26 27 28 29 30 31 32 33 34 35 36 37 38 39 40 41 42 43 44 45 46 47 48 49 50

000
ASUS43 KTOP 162108
RWRKS

WEATHER ROUNDUP FOR KANSAS
NATIONAL WEATHER SERVICE GOODLAND KS
400 PM CDT MON OCT 16 2017

NOTE:  "FAIR" INDICATES FEW OR NO CLOUDS BELOW 12,000 FEET WITH NO
SIGNIFICANT WEATHER AND/OR OBSTRUCTIONS TO VISIBILITY.

KSZ001>006-013>018-027>032-041>047-162200-
NORTHWEST KANSAS

CITY           SKY/WX    TMP DP  RH WIND       PRES   REMARKS
GOODLAND       CLOUDY    74  33  22 S17       30.13F
HAYS           SUNNY     74  33  22 S18G26    30.18F
HILL CITY      SUNNY     78  31  17 S20G30    30.15F
RUSSELL        SUNNY     75  32  20 SW22G31   30.18F
$$

KSZ061>065-074>080-084>089-162200-
SOUTHWEST KANSAS

CITY           SKY/WX    TMP DP  RH WIND       PRES   REMARKS
DODGE CITY     SUNNY     73  27  18 S21G29    30.22F
ELKHART          N/A     73  38  28 S15         N/A
GARDEN CITY    SUNNY     74  31  20 SW20G30   30.19F
GREAT BEND     SUNNY     72  35  25 S20G25    30.21F
LIBERAL        SUNNY     72  34  24 S20       30.23F
PRATT          SUNNY     72  33  23 S18       30.25F
$$

KSZ066>073-081>083-090>101-162200-
SOUTHEAST KANSAS

CITY           SKY/WX    TMP DP  RH WIND       PRES   REMARKS
CHANUTE        SUNNY     67  38  34 S10       30.32F
COFFEYVILLE    SUNNY     68  38  33 SE7       30.32F
HUTCHINSON     SUNNY     72  37  28 S17G23    30.25F
MEDICINE LODGE   N/A     72  34  24 S15       30.25F
NEWTON         SUNNY     68  38  33 S16G22    30.27F
PARSONS        LGT RAIN  68  37  32 SW6       30.33F
WICHITA INTL   MOSUNNY   69  39  33 S16       30.27F
WICHITA JABRA  SUNNY     68  37  32 S15       30.28F
WICHITA MCCONL SUNNY     69  37  31 SW13      30.28F
WINFIELD       SUNNY     68  41  37 S9        30.31F
$$

KSZ007>012-019>026-033>040-048>060-102>105-162200-
NORTHEAST KANSAS

CITY           SKY/WX    TMP DP  RH WIND       PRES   REMARKS
CONCORDIA      SUNNY     73  36  25 SW15G25   30.20F
EMPORIA        SUNNY     69  38  32 S13       30.28F
LAWRENCE       SUNNY     70  41  34 S8G17     30.26F
MANHATTAN      SUNNY     73  40  30 SW14G24   30.22F
MARYSVILLE     SUNNY     72  37  28 SW13G18   30.21F
OLATHE IND     SUNNY     68  42  38 SW12      30.29F
OLATHE EXE     SUNNY     66  40  38 SW9       30.29F
SALINA         SUNNY     74  40  29 S18       30.23F
TOPEKA BILLARD SUNNY     72  37  28 SW13      30.25F
TOPEKA FORBES  SUNNY     72  39  30 S16G22    30.26F
$$



USA.gov is the U.S. government's official web portal to all federal, state and local government web resources and services.